PBO Station Position Time Series. Reference Frame : NAM14
Format Version,1.1.0
4-character ID,P304
Station name,Mendota___CN2004
Begin Date, 2004-04-30
End Date, 2019-10-07
Release Date, 2019-10-08
Reference position, 36.7390043704 North Latitude, -120.3565996250 East Longitude, 17.11969 meters elevation,
Date, North (mm), East (mm), Vertical (mm), North Std. Deviation (mm), East Std. Deviation (mm),              Vertical Std. Deviation (mm), Quality,
2004-04-30,0.00, 0.00, 0.00, 4.59, 3.76, 16.69, repro,
2004-05-01,0.58, -1.93, -10.11, 2.16, 1.76, 8.18, repro,
2004-05-02,1.34, -1.19, -3.10, 2.23, 1.81, 8.60, repro,
2004-05-03,-0.57, -1.85, -10.43, 2.15, 1.78, 8.18, repro,
2004-05-04,0.57, -1.34, 4.69, 2.12, 1.77, 8.07, repro,
2004-05-05,0.62, -1.82, -7.15, 2.14, 1.76, 8.04, repro,
2004-05-06,-0.56, -2.88, -5.58, 2.08, 1.72, 7.69, repro,
2004-05-07,0.68, -1.23, -0.58, 2.14, 1.81, 8.06, repro,
2004-05-08,-0.36, -1.96, -7.59, 2.19, 1.84, 8.45, repro,
2004-05-09,-0.43, -1.63, -7.13, 2.21, 1.88, 8.62, repro,
2004-05-10,1.07, -2.04, 2.03, 2.14, 1.77, 8.06, repro,
2004-05-11,1.48, -1.82, 3.15, 2.12, 1.81, 8.03, repro,
2004-05-12,0.45, -1.90, -5.81, 2.13, 1.83, 8.09, repro,
2004-05-13,0.49, -0.35, -6.82, 2.14, 1.83, 8.12, repro,
2004-05-14,-0.68, -1.08, -6.50, 2.19, 1.84, 8.40, repro,
2004-05-15,0.13, -1.96, 4.60, 2.06, 1.74, 7.75, repro,
2004-05-16,0.25, -2.53, -0.44, 2.05, 1.71, 7.62, repro,
2004-05-17,0.51, -2.71, -8.43, 2.05, 1.71, 7.60, repro,
2004-05-18,-0.18, -1.76, -8.97, 2.03, 1.66, 7.50, repro,
2004-05-19,-0.02, -3.36, -8.93, 2.07, 1.67, 7.59, repro,
2004-05-20,0.50, -2.54, -11.33, 2.07, 1.66, 7.59, repro,
2004-05-21,0.90, -1.66, -7.34, 2.04, 1.70, 7.60, repro,
2004-05-22,0.50, -2.80, -5.83, 2.01, 1.65, 7.45, repro,
2004-05-23,0.15, -2.26, -6.90, 2.01, 1.64, 7.43, repro,
2004-05-24,0.07, -1.42, -2.83, 2.02, 1.64, 7.49, repro,
2004-05-25,0.83, -2.09, -2.09, 2.06, 1.67, 7.77, repro,
2004-05-26,-0.07, -1.85, -2.15, 2.01, 1.65, 7.53, repro,
2004-05-27,0.17, -2.68, 5.63, 2.09, 1.73, 7.77, repro,
2004-05-28,1.04, -2.81, -4.36, 2.07, 1.73, 7.73, repro,
2004-05-29,1.63, -1.04, -3.04, 2.04, 1.69, 7.63, repro,
2004-05-30,0.27, -1.65, -3.24, 2.07, 1.73, 7.76, repro,
2004-05-31,1.50, -1.10, -8.15, 2.03, 1.68, 7.57, repro,
2004-06-01,0.43, -3.15, -5.00, 2.00, 1.64, 7.44, repro,
2004-06-02,-0.20, -0.40, -5.17, 2.00, 1.65, 7.43, repro,
2004-06-03,1.19, -0.77, -8.24, 2.01, 1.65, 7.46, repro,
2004-06-04,0.18, -0.60, -9.40, 2.00, 1.64, 7.46, repro,
2004-06-05,0.54, -1.73, -10.66, 2.01, 1.64, 7.47, repro,
2004-06-06,0.29, -1.31, -10.00, 1.99, 1.64, 7.45, repro,
2004-06-07,2.12, -2.51, -2.81, 2.02, 1.65, 7.51, repro,
2004-06-08,0.12, -0.63, -8.98, 2.01, 1.65, 7.47, repro,
2004-06-09,-1.32, -1.47, -6.76, 2.00, 1.65, 7.43, repro,
2004-06-10,0.67, -0.64, -7.18, 2.01, 1.64, 7.41, repro,
2004-06-11,0.82, -1.30, -4.22, 2.03, 1.65, 7.55, repro,
2004-06-12,0.83, -1.98, -6.36, 2.02, 1.65, 7.55, repro,
2004-06-13,-0.33, -0.67, -4.65, 2.01, 1.67, 7.54, repro,
2004-06-14,0.61, -1.49, -18.42, 2.04, 1.71, 7.72, repro,
2004-06-15,0.31, -0.30, -4.92, 2.14, 1.71, 7.82, repro,
2004-06-16,0.59, 0.10, -6.20, 2.15, 1.71, 7.83, repro,
2004-06-17,0.44, 0.52, -17.33, 2.10, 1.72, 7.82, repro,
2004-06-18,0.07, -0.91, -14.12, 2.13, 1.73, 7.85, repro,
2004-06-19,1.39, -0.36, -12.38, 2.04, 1.67, 7.62, repro,
2004-06-20,0.40, -0.68, -12.77, 2.06, 1.68, 7.66, repro,
2004-06-21,-0.21, -0.63, -9.00, 2.06, 1.68, 7.69, repro,
2004-06-22,0.36, 0.15, -4.55, 2.14, 1.71, 7.80, repro,
2004-06-23,0.93, -1.13, -11.04, 2.07, 1.69, 7.63, repro,
2004-06-24,0.33, -0.41, -9.00, 2.00, 1.66, 7.47, repro,
2004-06-25,0.20, -0.79, -12.02, 2.13, 1.71, 8.01, repro,
2004-06-26,0.13, 0.69, -11.26, 2.12, 1.71, 7.78, repro,
2004-06-27,-0.18, 0.60, -5.75, 2.21, 1.80, 8.13, repro,
2004-06-28,1.38, 2.19, -13.83, 2.12, 1.70, 7.81, repro,
2004-06-29,1.29, -0.59, -11.81, 2.36, 1.92, 8.74, repro,
2004-06-30,0.81, -0.17, -22.29, 2.17, 1.76, 8.13, repro,
2004-07-01,0.95, 0.61, -10.56, 2.07, 1.70, 7.60, repro,
2004-07-02,0.08, -0.00, -14.88, 2.01, 1.67, 7.51, repro,
2004-07-03,0.03, 0.04, -10.25, 2.11, 1.72, 7.73, repro,
2004-07-04,0.70, -0.81, -13.79, 2.05, 1.68, 7.55, repro,
2004-07-05,0.12, 0.55, -9.83, 2.06, 1.69, 7.66, repro,
2004-07-06,0.10, -0.03, -9.85, 2.01, 1.67, 7.47, repro,
2004-07-07,0.03, 0.04, -5.65, 2.05, 1.68, 7.64, repro,
2004-07-08,1.44, -0.20, -8.33, 2.11, 1.71, 7.81, repro,
2004-07-09,0.71, 0.18, -15.23, 2.17, 1.74, 7.90, repro,
2004-07-10,1.03, -0.05, -9.91, 2.05, 1.65, 7.53, repro,
2004-07-11,0.88, 0.95, -9.99, 2.09, 1.68, 7.68, repro,
2004-07-12,0.05, -0.51, -11.95, 2.10, 1.69, 7.65, repro,
2004-07-13,0.68, -0.48, -10.70, 2.04, 1.65, 7.50, repro,
2004-07-14,-0.44, -0.34, -9.92, 2.09, 1.67, 7.71, repro,
2004-07-15,0.04, -0.75, -8.49, 2.05, 1.67, 7.65, repro,
2004-07-16,0.21, 0.39, -13.17, 2.47, 2.08, 8.98, repro,
2004-07-17,-0.48, -0.01, -6.04, 2.04, 1.68, 7.59, repro,
2004-07-18,-1.32, 0.17, -11.87, 1.98, 1.64, 7.40, repro,
2004-07-19,-0.56, 0.59, -8.62, 2.03, 1.72, 7.68, repro,
2004-07-20,-1.53, 0.35, -6.56, 2.01, 1.73, 7.60, repro,
2004-07-21,-0.07, 0.96, -13.10, 1.99, 1.65, 7.40, repro,
2004-07-22,-0.04, 0.56, -7.37, 2.03, 1.73, 7.63, repro,
2004-07-23,-0.72, -0.44, -16.28, 1.98, 1.65, 7.39, repro,
2004-07-24,-1.18, 0.49, -9.77, 1.96, 1.64, 7.37, repro,
2004-07-25,0.24, -0.21, -4.86, 1.97, 1.65, 7.40, repro,
2004-07-26,-0.73, 0.09, -10.60, 2.02, 1.70, 7.54, repro,
2004-07-27,1.29, 1.23, -11.80, 1.98, 1.65, 7.41, repro,
2004-07-28,1.44, 0.35, -12.61, 1.97, 1.64, 7.31, repro,
2004-07-29,0.14, 0.47, -12.08, 1.95, 1.64, 7.32, repro,
2004-07-30,1.50, 0.62, -7.18, 1.94, 1.64, 7.29, repro,
2004-07-31,-0.84, 0.76, -9.93, 1.96, 1.65, 7.33, repro,
2004-08-01,0.51, 0.19, -12.88, 1.98, 1.65, 7.38, repro,
2004-08-02,1.40, -0.96, -18.62, 1.98, 1.64, 7.36, repro,
2004-08-03,0.06, 0.79, -10.68, 2.00, 1.65, 7.40, repro,
2004-08-04,-2.08, -0.09, -7.63, 2.01, 1.64, 7.46, repro,
2004-08-05,0.06, 0.29, -8.90, 1.97, 1.68, 7.42, repro,
2004-08-06,-0.77, 0.13, -11.33, 1.99, 1.69, 7.48, repro,
2004-08-07,0.46, -0.75, -11.04, 1.99, 1.66, 7.40, repro,
2004-08-08,-1.47, -0.05, -13.37, 1.97, 1.64, 7.33, repro,
2004-08-09,-1.35, 0.18, -16.25, 1.97, 1.64, 7.39, repro,
2004-08-10,-1.00, 0.42, -14.62, 1.95, 1.65, 7.33, repro,
2004-08-11,-0.62, 0.35, -14.00, 1.95, 1.64, 7.30, repro,
2004-08-12,-0.74, -0.84, -10.18, 2.02, 1.69, 7.49, repro,
2004-08-13,-0.64, -0.30, -24.66, 2.01, 1.69, 7.47, repro,
2004-08-14,-1.33, 0.29, -7.40, 2.03, 1.70, 7.59, repro,
2004-08-15,0.00, 0.38, -13.61, 2.01, 1.69, 7.49, repro,
2004-08-16,-0.70, 0.01, -15.31, 1.99, 1.72, 7.50, repro,
2004-08-17,0.91, 0.09, -18.18, 1.98, 1.65, 7.38, repro,
2004-08-18,-0.31, -0.29, -10.04, 1.98, 1.65, 7.37, repro,
2004-08-19,-1.93, -0.08, -8.83, 1.97, 1.64, 7.34, repro,
2004-08-20,-1.14, 1.33, -12.22, 1.99, 1.65, 7.43, repro,
2004-08-21,-0.73, 0.32, -8.27, 1.96, 1.65, 7.38, repro,
2004-08-22,-0.98, -0.11, -10.52, 1.95, 1.65, 7.29, repro,
2004-08-23,0.63, -0.11, -12.93, 1.96, 1.64, 7.31, repro,
2004-08-24,0.28, -0.40, -9.00, 2.02, 1.68, 7.46, repro,
2004-08-25,-0.67, -0.38, -8.11, 2.08, 1.72, 7.62, repro,
2004-08-26,0.21, -0.45, -14.36, 1.97, 1.65, 7.39, repro,
2004-08-27,-2.07, 0.54, -8.34, 2.08, 1.70, 7.59, repro,
2004-08-28,0.74, 1.44, -13.40, 2.04, 1.77, 7.64, repro,
2004-08-29,0.95, -0.08, -15.31, 2.19, 1.80, 7.84, repro,
2004-08-30,-0.25, -0.30, -12.77, 2.20, 1.80, 7.90, repro,
2004-08-31,-0.80, 0.82, -13.47, 2.10, 1.73, 7.70, repro,
2004-09-01,-0.92, 0.49, -11.85, 2.01, 1.69, 7.52, repro,
2004-09-02,-1.29, 0.39, -4.94, 2.07, 1.72, 7.73, repro,
2004-09-03,-0.67, 0.25, -4.86, 2.02, 1.69, 7.52, repro,
2004-09-04,-0.58, -0.07, -7.47, 2.03, 1.69, 7.52, repro,
2004-09-05,-0.96, -0.40, -12.53, 2.07, 1.77, 7.78, repro,
2004-09-06,-0.70, 0.03, -9.96, 1.98, 1.65, 7.42, repro,
2004-09-07,-1.31, 0.93, -8.00, 1.99, 1.65, 7.43, repro,
2004-09-08,-1.07, 1.42, -10.30, 2.10, 1.72, 7.72, repro,
2004-09-09,-1.02, -0.27, -9.60, 2.10, 1.70, 7.62, repro,
2004-09-10,-0.92, 0.61, -13.49, 2.03, 1.69, 7.52, repro,
2004-09-11,-1.00, -0.97, -8.54, 1.98, 1.65, 7.41, repro,
2004-09-12,-0.21, -0.79, -8.16, 2.05, 1.66, 7.58, repro,
2004-09-13,-0.29, 0.28, 1.05, 2.08, 1.71, 7.70, repro,
2004-09-14,-0.70, -0.76, -2.22, 2.00, 1.66, 7.47, repro,
2004-09-15,-0.96, -0.68, -2.73, 2.01, 1.69, 7.46, repro,
2004-09-16,-1.35, -0.45, -9.37, 1.98, 1.64, 7.32, repro,
2004-09-17,-1.67, 0.21, -14.12, 2.00, 1.69, 7.49, repro,
2004-09-18,-1.64, 1.17, -9.05, 2.01, 1.71, 7.56, repro,
2004-09-19,-0.56, -1.09, -0.23, 1.99, 1.66, 7.40, repro,
2004-09-20,-0.34, -0.49, -8.13, 1.99, 1.64, 7.31, repro,
2004-09-21,-0.86, 0.25, -15.03, 2.05, 1.65, 7.40, repro,
2004-09-22,-0.68, 0.46, -14.37, 2.09, 1.72, 7.65, repro,
2004-09-23,-0.88, 0.02, -8.19, 2.09, 1.71, 7.62, repro,
2004-09-24,-1.17, 0.38, -4.82, 2.05, 1.71, 7.59, repro,
2004-09-25,0.19, 0.78, -7.56, 2.01, 1.68, 7.44, repro,
2004-09-26,-0.94, 0.75, -7.80, 1.96, 1.63, 7.24, repro,
2004-09-27,-0.36, 0.82, -10.15, 2.01, 1.68, 7.42, repro,
2004-09-28,-2.39, -0.30, -6.23, 1.96, 1.64, 7.29, repro,
2004-09-29,-0.81, -0.15, -10.56, 1.95, 1.64, 7.26, repro,
2004-09-30,-1.19, 0.16, -10.78, 1.96, 1.64, 7.27, repro,
2004-10-01,-1.46, -0.81, -9.91, 1.97, 1.63, 7.24, repro,
2004-10-02,-1.64, -0.36, -11.13, 1.96, 1.63, 7.28, repro,
2004-10-03,-1.64, 0.07, -11.45, 1.97, 1.64, 7.29, repro,
2004-10-04,-0.10, 0.24, -10.31, 1.96, 1.64, 7.29, repro,
2004-10-05,-1.61, -0.41, -13.58, 1.95, 1.64, 7.24, repro,
2004-10-06,-2.19, -0.14, -2.87, 2.00, 1.68, 7.43, repro,
2004-10-07,-2.10, -0.67, -9.18, 1.95, 1.63, 7.25, repro,
2004-10-08,-2.87, -0.79, -4.07, 2.01, 1.69, 7.50, repro,
2004-10-09,-1.97, -0.31, -10.30, 2.07, 1.74, 7.77, repro,
2004-10-10,-2.86, -1.09, -5.90, 2.00, 1.69, 7.51, repro,
2004-10-11,-1.93, -0.04, -5.18, 1.99, 1.68, 7.44, repro,
2004-10-12,-1.66, -0.26, -11.46, 2.03, 1.72, 7.61, repro,
2004-10-13,-2.64, 0.43, -9.52, 2.00, 1.68, 7.47, repro,
2004-10-14,-2.64, 0.18, -8.85, 1.98, 1.64, 7.35, repro,
2004-10-15,-3.23, -0.44, -6.38, 2.03, 1.68, 7.47, repro,
2004-10-16,-2.44, -1.37, -10.15, 1.96, 1.64, 7.29, repro,
2004-10-17,-3.44, -2.18, -4.08, 2.01, 1.69, 7.38, repro,
2004-10-18,-2.65, -1.30, -2.62, 2.02, 1.68, 7.64, repro,
2004-10-19,-5.38, -1.49, 1.31, 2.03, 1.68, 7.46, repro,
2004-10-20,-4.69, -0.07, 0.26, 2.04, 1.68, 7.45, repro,
2004-10-21,-3.25, -1.08, -4.85, 2.02, 1.65, 7.40, repro,
2004-10-22,-3.35, -1.25, -5.67, 2.05, 1.70, 7.61, repro,
2004-10-23,-0.91, -1.31, -8.67, 2.02, 1.67, 7.55, repro,
2004-10-24,-2.36, -0.69, -6.68, 1.97, 1.64, 7.26, repro,
2004-10-25,-2.05, -1.13, -7.26, 2.02, 1.67, 7.54, repro,
2004-10-26,-3.45, -0.71, -1.47, 2.06, 1.70, 7.63, repro,
2004-10-27,-1.23, -1.69, -4.87, 2.09, 1.71, 7.83, repro,
2004-10-28,-1.35, -2.04, -6.86, 2.03, 1.72, 7.72, repro,
2004-10-29,-1.14, -0.79, -15.88, 2.04, 1.73, 7.79, repro,
2004-10-30,-3.09, -0.08, -3.09, 2.08, 1.78, 8.00, repro,
2004-10-31,-3.43, 0.21, -8.79, 2.05, 1.73, 7.72, repro,
2004-11-01,-2.64, -1.10, -16.98, 2.05, 1.72, 7.69, repro,
2004-11-02,-2.37, -1.59, -14.39, 1.99, 1.68, 7.36, repro,
2004-11-03,-2.09, -1.37, -13.18, 2.02, 1.68, 7.44, repro,
2004-11-04,-3.33, -1.53, -6.43, 2.01, 1.70, 7.49, repro,
2004-11-05,-1.12, -1.91, -2.74, 2.07, 1.77, 7.80, repro,
2004-11-06,-3.41, -1.22, -6.10, 2.01, 1.72, 7.55, repro,
2004-11-07,-2.31, -1.24, -11.36, 2.00, 1.71, 7.52, repro,
2004-11-08,-3.58, -1.31, -6.84, 2.20, 1.92, 8.64, repro,
2004-11-09,-3.52, -2.31, -5.01, 2.08, 1.79, 7.91, repro,
2004-11-10,-1.21, -2.09, -14.80, 2.05, 1.74, 7.86, repro,
2004-11-11,-3.29, -3.36, -19.14, 2.05, 1.74, 7.75, repro,
2004-11-12,-2.21, -2.89, -12.90, 2.03, 1.74, 7.75, repro,
2004-11-13,-3.46, -2.60, -9.90, 1.99, 1.70, 7.43, repro,
2004-11-14,-2.15, -2.27, -16.96, 1.98, 1.69, 7.40, repro,
2004-11-15,-2.98, -1.33, -12.79, 1.95, 1.65, 7.28, repro,
2004-11-16,-2.62, -2.06, -7.84, 2.02, 1.77, 7.72, repro,
2004-11-17,-3.24, -2.69, -10.49, 1.95, 1.66, 7.29, repro,
2004-11-18,-2.65, -2.62, -8.35, 1.98, 1.70, 7.46, repro,
2004-11-19,-3.41, -3.07, -7.17, 2.07, 1.81, 7.91, repro,
2004-11-20,-2.66, -2.01, -0.73, 2.21, 1.85, 8.33, repro,
2004-11-21,-3.57, -2.65, -6.28, 2.16, 1.81, 8.13, repro,
2004-11-22,-2.66, -1.84, -8.71, 2.01, 1.75, 7.67, repro,
2004-11-23,-3.81, -1.95, -10.12, 2.03, 1.70, 7.62, repro,
2004-11-24,-3.32, -3.83, -4.63, 2.06, 1.73, 7.92, repro,
2004-11-25,-2.32, -3.17, -1.88, 2.24, 1.94, 8.52, repro,
2004-11-26,-1.98, -3.15, -1.15, 1.96, 1.72, 7.49, repro,
2004-11-27,-2.33, -4.08, -2.99, 1.95, 1.69, 7.39, repro,
2004-11-28,-2.53, -2.36, -6.72, 1.96, 1.72, 7.48, repro,
2004-11-29,-3.17, -2.20, -10.66, 1.92, 1.64, 7.18, repro,
2004-11-30,-1.93, -2.93, -11.95, 1.97, 1.71, 7.46, repro,
2004-12-01,-1.42, -2.64, -12.00, 2.13, 1.82, 8.09, repro,
2004-12-02,-3.08, -2.19, -7.39, 2.00, 1.67, 7.45, repro,
2004-12-03,-1.85, -2.01, -11.85, 2.04, 1.73, 7.58, repro,
2004-12-04,-3.00, -2.78, -7.27, 2.04, 1.73, 7.58, repro,
2004-12-05,-2.19, -2.50, -7.74, 1.92, 1.63, 7.14, repro,
2004-12-06,-2.80, -2.55, -4.08, 2.12, 1.89, 8.23, repro,
2004-12-07,-2.52, -3.54, -2.41, 2.02, 1.73, 7.64, repro,
2004-12-08,-2.81, -4.05, -6.40, 2.00, 1.70, 7.58, repro,
2004-12-09,-1.96, -2.82, -8.27, 1.98, 1.72, 7.41, repro,
2004-12-10,-2.26, -1.72, -9.65, 2.08, 1.78, 7.73, repro,
2004-12-11,-2.36, -2.03, -8.81, 2.06, 1.74, 7.71, repro,
2004-12-12,-2.97, -3.15, -9.41, 2.04, 1.73, 7.62, repro,
2004-12-13,-2.76, -2.78, -7.58, 2.09, 1.75, 7.69, repro,
2004-12-14,-3.02, -4.12, -14.13, 2.23, 1.96, 8.50, repro,
2004-12-15,-3.07, -3.58, -11.63, 2.10, 1.86, 7.99, repro,
2004-12-16,-2.17, -3.16, -12.84, 2.02, 1.65, 7.45, repro,
2004-12-17,-2.43, -3.28, -11.95, 1.93, 1.64, 7.17, repro,
2004-12-18,-1.80, -3.59, -12.42, 2.04, 1.72, 7.55, repro,
2004-12-19,-2.27, -4.65, -9.08, 1.95, 1.64, 7.23, repro,
2004-12-20,-2.27, -3.70, 0.40, 1.95, 1.64, 7.23, repro,
2004-12-21,-4.09, -3.92, -4.67, 1.99, 1.65, 7.48, repro,
2004-12-22,-2.94, -3.00, -13.05, 1.98, 1.64, 7.42, repro,
2004-12-23,-2.11, -3.42, -13.73, 1.94, 1.67, 7.25, repro,
2004-12-24,-2.39, -3.50, -12.04, 1.94, 1.66, 7.21, repro,
2004-12-25,-2.75, -4.29, -3.30, 1.94, 1.66, 7.29, repro,
2004-12-26,-2.24, -4.49, -1.73, 2.02, 1.65, 7.41, repro,
2004-12-27,-4.66, -2.69, -1.39, 2.06, 1.68, 7.61, repro,
2004-12-28,-1.90, -3.41, -1.75, 2.09, 1.69, 7.63, repro,
2004-12-29,-2.17, -3.25, -0.49, 2.05, 1.68, 7.57, repro,
2004-12-30,-2.85, -3.81, -1.08, 2.12, 1.71, 7.72, repro,
2004-12-31,-3.16, -4.33, -2.93, 2.12, 1.75, 7.75, repro,
2005-01-01,-3.02, -2.79, -7.24, 2.03, 1.65, 7.50, repro,
2005-01-02,-3.94, -2.18, -3.18, 2.14, 1.74, 7.67, repro,
2005-01-03,-2.81, -3.44, -3.92, 2.10, 1.67, 7.61, repro,
2005-01-04,-2.96, -3.77, -6.22, 2.15, 1.76, 7.78, repro,
2005-01-05,-2.67, -3.04, -7.27, 2.06, 1.72, 7.67, repro,
2005-01-06,-2.96, -3.18, -6.95, 2.15, 1.83, 7.91, repro,
2005-01-07,-3.70, -2.13, -0.03, 2.11, 1.76, 7.74, repro,
2005-01-08,-4.64, -7.35, 0.65, 2.07, 1.75, 7.65, repro,
2005-01-09,-2.36, -3.32, -15.44, 1.98, 1.67, 7.45, repro,
2005-01-10,-3.69, -3.27, -9.42, 2.06, 1.76, 7.83, repro,
2005-01-11,-3.23, -4.72, -5.14, 2.14, 1.88, 7.84, repro,
2005-01-12,-1.87, -2.14, -5.31, 2.10, 1.84, 7.97, repro,
2005-01-13,-0.95, -2.89, -11.71, 2.15, 1.88, 8.21, repro,
2005-01-14,-2.02, -3.00, -14.09, 2.11, 1.81, 7.79, repro,
2005-01-15,-1.40, -3.82, -16.97, 2.33, 2.11, 8.81, repro,
2005-01-16,-3.71, -3.91, -14.53, 2.12, 1.78, 7.74, repro,
2005-01-17,-2.34, -4.03, -14.48, 1.97, 1.66, 7.43, repro,
2005-01-18,-0.88, -3.59, -10.72, 2.05, 1.74, 7.68, repro,
2005-01-19,-0.86, -3.57, -17.72, 2.08, 1.70, 7.68, repro,
2005-01-20,-0.65, -4.85, -13.22, 2.08, 1.75, 7.73, repro,
2005-01-21,-1.51, -3.38, -7.54, 2.06, 1.75, 7.80, repro,
2005-01-22,-2.49, -3.36, -6.92, 1.99, 1.71, 7.48, repro,
2005-01-23,-0.80, -3.57, -10.51, 1.98, 1.66, 7.43, repro,
2005-01-24,-1.20, -4.11, -11.83, 2.01, 1.71, 7.60, repro,
2005-01-25,-1.50, -3.39, -4.27, 2.09, 1.84, 7.98, repro,
2005-01-26,-0.97, -4.45, -6.08, 2.00, 1.66, 7.44, repro,
2005-01-27,-1.76, -4.10, -5.27, 1.99, 1.66, 7.45, repro,
2005-01-28,-0.17, -4.24, -5.48, 2.04, 1.78, 7.58, repro,
2005-01-29,-0.60, -4.85, -12.09, 1.99, 1.68, 7.40, repro,
2005-01-30,-1.63, -4.27, -10.41, 1.99, 1.66, 7.36, repro,
2005-01-31,0.02, -3.63, -10.66, 1.97, 1.66, 7.35, repro,
2005-02-01,-0.75, -3.53, -9.48, 2.00, 1.67, 7.43, repro,
2005-02-02,-0.68, -2.89, -12.49, 1.97, 1.61, 7.25, repro,
2005-02-03,-1.68, -2.48, -11.72, 2.03, 1.64, 7.40, repro,
2005-02-04,-0.85, -3.63, -11.35, 1.96, 1.61, 7.21, repro,
2005-02-05,-0.39, -3.80, -9.46, 1.96, 1.60, 7.19, repro,
2005-02-06,-0.44, -4.43, -10.48, 1.96, 1.62, 7.23, repro,
2005-02-07,-0.73, -4.09, -5.75, 1.97, 1.61, 7.24, repro,
2005-02-08,-1.30, -3.27, -7.42, 2.00, 1.66, 7.40, repro,
2005-02-09,-0.58, -3.14, -7.42, 2.00, 1.65, 7.38, repro,
2005-02-10,-0.45, -3.33, -6.52, 1.96, 1.59, 7.15, repro,
2005-02-11,-1.09, -4.19, -2.44, 1.97, 1.61, 7.22, repro,
2005-02-12,-0.34, -3.98, -3.63, 1.97, 1.61, 7.22, repro,
2005-02-13,-1.08, -3.76, 2.84, 1.98, 1.62, 7.27, repro,
2005-02-14,-0.95, -3.43, 0.67, 1.99, 1.61, 7.26, repro,
2005-02-15,-0.54, -3.48, -7.57, 1.98, 1.61, 7.25, repro,
2005-02-16,0.63, -2.88, -7.35, 1.99, 1.62, 7.34, repro,
2005-02-17,-0.25, -3.27, -4.75, 2.05, 1.65, 7.49, repro,
2005-02-18,-1.79, -5.02, -4.46, 2.03, 1.67, 7.46, repro,
2005-02-19,-1.47, -3.86, 2.55, 1.99, 1.62, 7.31, repro,
2005-02-20,-1.87, -4.09, -6.24, 1.98, 1.62, 7.30, repro,
2005-02-21,0.69, -5.75, -3.65, 2.04, 1.67, 7.55, repro,
2005-02-22,-0.70, -2.63, -6.78, 1.99, 1.61, 7.27, repro,
2005-02-23,-1.42, -2.70, -8.31, 2.03, 1.63, 7.37, repro,
2005-02-24,-1.56, -3.56, -7.89, 2.04, 1.64, 7.39, repro,
2005-02-25,-0.82, -3.10, -4.81, 2.04, 1.63, 7.38, repro,
2005-02-26,-1.33, -2.43, -4.42, 2.03, 1.62, 7.35, repro,
2005-02-27,-1.32, -3.57, -8.93, 2.04, 1.62, 7.38, repro,
2005-02-28,-0.64, -2.15, -4.93, 2.03, 1.62, 7.37, repro,
2005-03-01,-1.67, -3.49, -7.70, 2.05, 1.63, 7.41, repro,
2005-03-02,-1.15, -3.67, -1.74, 2.04, 1.63, 7.37, repro,
2005-03-03,0.19, -3.18, -9.65, 2.03, 1.62, 7.33, repro,
2005-03-04,-0.29, -3.74, -6.99, 2.10, 1.65, 7.53, repro,
2005-03-05,0.65, -2.55, -9.84, 2.04, 1.62, 7.36, repro,
2005-03-06,-0.91, -2.28, -9.88, 2.04, 1.63, 7.40, repro,
2005-03-07,-1.41, -1.97, -7.70, 2.05, 1.63, 7.41, repro,
2005-03-08,-1.34, -2.02, -6.32, 2.04, 1.62, 7.35, repro,
2005-03-09,0.04, -2.16, -11.73, 2.07, 1.66, 7.51, repro,
2005-03-10,-1.23, -3.35, -1.83, 2.04, 1.62, 7.34, repro,
2005-03-11,-0.63, -2.42, -2.39, 2.04, 1.62, 7.38, repro,
2005-03-12,-2.23, -3.13, -3.59, 2.05, 1.62, 7.39, repro,
2005-03-13,-1.57, -2.64, -9.67, 2.04, 1.63, 7.35, repro,
2005-03-14,-0.49, -2.73, -6.79, 2.04, 1.61, 7.34, repro,
2005-03-15,-0.08, -2.48, -4.42, 2.06, 1.65, 7.50, repro,
2005-03-16,-0.96, -3.39, -4.76, 2.07, 1.66, 7.60, repro,
2005-03-17,-1.97, -3.36, -3.22, 2.06, 1.63, 7.46, repro,
2005-03-18,-2.31, -2.82, 3.53, 2.05, 1.62, 7.41, repro,
2005-03-19,-2.15, -2.81, -2.91, 2.16, 1.78, 8.04, repro,
2005-03-20,-2.42, -3.44, -7.97, 2.06, 1.63, 7.46, repro,
2005-03-21,-1.71, -2.50, -0.40, 2.04, 1.62, 7.41, repro,
2005-03-22,-0.78, -2.39, -4.66, 2.06, 1.62, 7.43, repro,
2005-03-23,-1.05, -3.52, 4.79, 2.05, 1.62, 7.41, repro,
2005-03-24,-1.68, -3.60, 1.98, 2.04, 1.62, 7.37, repro,
2005-03-25,-2.03, -3.00, -1.42, 2.05, 1.62, 7.38, repro,
2005-03-26,-1.15, -2.62, -1.68, 2.06, 1.61, 7.40, repro,
2005-03-27,-0.94, -3.15, -1.34, 2.05, 1.61, 7.40, repro,
2005-03-28,0.45, -2.34, 7.34, 2.07, 1.64, 7.52, repro,
2005-03-29,-1.28, -3.26, 1.95, 2.07, 1.67, 7.54, repro,
2005-03-30,-1.17, -3.12, 3.74, 2.05, 1.64, 7.43, repro,
2005-03-31,-0.46, -2.89, 1.21, 2.11, 1.65, 7.63, repro,
2005-04-01,-0.17, -3.18, -7.05, 2.03, 1.60, 7.32, repro,
2005-04-02,-0.73, -3.56, -6.12, 2.05, 1.63, 7.43, repro,
2005-04-03,0.87, -3.16, 6.04, 2.12, 1.64, 7.74, repro,
2005-04-04,-1.87, -4.42, 6.22, 2.22, 1.70, 8.05, repro,
2005-04-05,-0.37, -3.18, 0.79, 2.04, 1.64, 7.57, repro,
2005-04-06,1.44, -2.92, 4.28, 2.18, 1.70, 8.06, repro,
2005-04-07,-0.22, -2.47, -0.24, 2.07, 1.63, 7.61, repro,
2005-04-08,-0.98, -3.79, 2.11, 2.12, 1.66, 7.85, repro,
2005-04-09,-0.09, -3.24, 6.22, 2.12, 1.66, 7.87, repro,
2005-04-10,-0.22, -2.90, -0.33, 2.12, 1.65, 7.80, repro,
2005-04-11,-0.12, -2.16, 8.33, 2.17, 1.65, 7.97, repro,
2005-04-12,-1.22, -3.06, 0.84, 2.10, 1.62, 7.72, repro,
2005-04-13,-0.28, -3.61, 4.28, 2.11, 1.62, 7.74, repro,
2005-04-14,1.33, -3.10, 0.44, 2.27, 1.73, 8.08, repro,
2005-04-15,0.10, -3.11, -0.41, 2.12, 1.66, 7.64, repro,
2005-04-16,-0.30, -3.71, 5.32, 2.14, 1.67, 7.96, repro,
2005-04-17,-0.13, -2.27, 2.01, 2.08, 1.65, 7.52, repro,
2005-04-18,-0.16, -3.22, 7.11, 2.10, 1.63, 7.67, repro,
2005-04-19,-0.41, -2.47, 6.75, 2.06, 1.63, 7.45, repro,
2005-04-20,0.21, -1.99, 0.30, 2.20, 1.67, 8.06, repro,
2005-04-21,-1.17, -2.40, 2.59, 2.19, 1.65, 8.00, repro,
2005-04-22,-0.98, -2.76, 7.82, 2.06, 1.61, 7.33, repro,
2005-04-23,-0.62, -2.46, 3.87, 2.12, 1.65, 7.44, repro,
2005-04-24,-1.41, -3.40, 2.73, 2.11, 1.63, 7.72, repro,
2005-04-25,0.31, -2.26, -2.09, 2.12, 1.63, 7.76, repro,
2005-04-26,-0.69, -2.86, 3.03, 2.12, 1.64, 7.75, repro,
2005-04-27,-2.56, -3.56, -3.13, 2.06, 1.62, 7.37, repro,
2005-04-28,-1.72, -2.78, 5.80, 2.11, 1.71, 7.68, repro,
2005-04-29,-1.03, -2.97, -1.87, 2.04, 1.61, 7.31, repro,
2005-04-30,-1.37, -3.79, 4.37, 2.06, 1.62, 7.45, repro,
2005-05-01,-1.18, -2.65, 6.61, 2.13, 1.64, 7.82, repro,
2005-05-02,-1.27, -2.86, 7.44, 2.07, 1.61, 7.42, repro,
2005-05-03,-0.84, -2.41, 7.94, 2.07, 1.65, 7.56, repro,
2005-05-04,-0.24, -2.07, 5.38, 2.03, 1.60, 7.30, repro,
2005-05-05,-1.90, -3.54, 6.55, 2.02, 1.60, 7.33, repro,
2005-05-06,-1.34, -3.77, 4.86, 2.04, 1.61, 7.38, repro,
2005-05-07,-1.49, -2.36, 5.43, 2.05, 1.62, 7.41, repro,
2005-05-08,-1.78, -2.98, 3.04, 2.06, 1.63, 7.45, repro,
2005-05-09,-1.39, -3.71, 2.19, 2.05, 1.63, 7.43, repro,
2005-05-10,-1.19, -3.23, 7.84, 2.08, 1.65, 7.58, repro,
2005-05-11,-0.79, -3.93, -0.49, 2.12, 1.69, 7.80, repro,
2005-05-12,-0.13, -3.58, 0.87, 2.10, 1.72, 7.83, repro,
2005-05-13,-0.64, -2.20, 0.49, 2.14, 1.75, 7.97, repro,
2005-05-14,-0.06, -3.36, 5.37, 2.11, 1.74, 7.73, repro,
2005-05-15,-2.39, -3.26, 6.76, 2.08, 1.71, 7.59, repro,
2005-05-16,0.01, -1.88, 1.65, 2.08, 1.69, 7.55, repro,
2005-05-17,0.05, -3.51, 6.47, 2.16, 1.70, 7.67, repro,
2005-05-18,-0.57, -2.90, 13.48, 2.25, 1.74, 7.86, repro,
2005-05-19,-1.16, -3.40, 2.29, 2.08, 1.68, 7.52, repro,
2005-05-20,-2.06, -3.53, 4.98, 2.09, 1.68, 7.53, repro,
2005-05-21,-0.29, -2.87, -0.95, 2.05, 1.67, 7.42, repro,
2005-05-22,-1.21, -2.64, 0.23, 2.05, 1.68, 7.42, repro,
2005-05-23,-0.34, -2.71, 1.53, 2.07, 1.68, 7.52, repro,
2005-05-24,-0.40, -3.53, 4.63, 2.08, 1.69, 7.54, repro,
2005-05-25,-0.61, -3.52, 3.09, 2.08, 1.68, 7.50, repro,
2005-05-26,-0.37, -3.65, 0.58, 2.07, 1.68, 7.48, repro,
2005-05-27,-0.13, -2.56, 2.95, 2.05, 1.67, 7.39, repro,
2005-05-28,-0.39, -3.20, 6.31, 2.07, 1.68, 7.46, repro,
2005-05-29,-0.10, -3.66, 0.95, 2.11, 1.70, 7.62, repro,
2005-05-30,-0.36, -2.75, 6.01, 2.09, 1.69, 7.54, repro,
2005-05-31,-0.90, -3.11, 5.02, 2.09, 1.68, 7.52, repro,
2005-06-01,-1.16, -3.07, 7.32, 2.04, 1.62, 7.37, repro,
2005-06-02,-0.35, -3.39, 7.91, 2.03, 1.62, 7.32, repro,
2005-06-03,-0.25, -2.89, 6.85, 2.07, 1.62, 7.42, repro,
2005-06-04,-0.34, -2.22, 8.51, 2.06, 1.63, 7.48, repro,
2005-06-05,-1.66, -2.59, 10.27, 2.05, 1.63, 7.44, repro,
2005-06-06,-1.53, -3.55, 6.47, 2.04, 1.61, 7.36, repro,
2005-06-07,-1.98, -3.05, 10.73, 2.03, 1.62, 7.35, repro,
2005-06-08,-1.14, -1.70, 11.64, 2.05, 1.62, 7.37, repro,
2005-06-09,-0.95, -2.41, 9.41, 2.08, 1.66, 7.57, repro,
2005-06-10,-2.27, -3.29, 10.13, 2.10, 1.68, 7.61, repro,
2005-06-11,-2.98, -4.32, 12.68, 2.08, 1.67, 7.56, repro,
2005-06-12,-1.87, -2.51, 7.48, 2.13, 1.70, 7.64, repro,
2005-06-13,-0.61, -1.66, 7.41, 2.15, 1.74, 7.82, repro,
2005-06-14,-0.34, -2.30, 9.91, 2.13, 1.70, 7.66, repro,
2005-06-15,-0.72, -2.59, 4.40, 2.06, 1.64, 7.46, repro,
2005-06-16,-0.91, -3.33, 4.62, 2.13, 1.65, 7.58, repro,
2005-06-17,-1.71, -2.63, 8.86, 2.14, 1.68, 7.67, repro,
2005-06-18,-0.33, -2.54, 6.66, 2.04, 1.62, 7.37, repro,